Theta_e
291 288 285 287 288 289 288 286 285 289 293 289 289 290 292 293 293 293 294 295 296 297 300 302 304 307 309 317 321 329 336 337 337 336 337 338 337 336 338 340 341 341 341 343
288 285 291 291 291 289 288 285 285 289 292 289 289 290 291 292 292 294 294 295 296 296 298 300 301 304 312 314 320 324 333 335 337 339 339 339 339 338 338 339 340 341 341 342
286 290 294 292 290 289 287 285 286 287 292 291 289 289 289 292 293 294 295 296 296 297 297 299 301 308 310 312 317 322 327 332 338 339 337 335 337 336 334 336 338 340 342 343
288 292 292 289 289 289 284 290 291 292 288 283 289 282 289 291 291 292 294 295 295 296 298 298 300 303 311 313 315 319 324 326 333 337 337 335 334 334 334 334 337 338 340 342
289 289 288 288 290 292 288 293 293 292 287 283 285 280 286 290 290 291 295 294 296 297 297 298 300 302 308 313 314 316 318 319 323 334 338 336 332 333 332 332 333 335 337 339
291 294 292 292 293 294 296 292 289 287 283 278 284 282 283 286 289 291 295 296 297 298 297 299 300 301 305 311 312 313 316 316 317 321 325 329 329 327 326 326 328 330 333 335
289 291 293 295 290 293 290 285 278 276 277 279 285 282 285 290 294 294 296 298 298 296 297 298 298 299 302 308 310 312 312 312 313 315 317 318 319 319 320 321 322 323 325 328
282 283 292 297 292 288 286 286 279 273 275 280 285 280 284 292 294 297 298 297 297 297 297 297 299 299 301 307 310 313 311 311 312 313 313 315 315 315 316 317 318 320 320 322
283 285 294 298 296 293 288 284 288 281 279 275 280 284 290 293 294 296 296 298 297 298 298 297 300 301 302 307 311 313 312 313 314 315 315 315 316 317 318 319 320 320 321 322
287 282 290 295 295 294 291 292 282 279 271 271 277 279 282 287 290 295 295 296 297 298 298 298 299 301 302 305 309 312 313 311 314 316 314 315 314 316 317 318 319 320 321 324
290 286 286 290 288 286 287 285 284 282 279 272 274 277 287 289 292 292 294 297 298 299 299 299 301 303 301 304 304 307 309 310 312 313 314 314 314 316 317 318 319 319 321 323
291 289 282 285 288 292 289 286 285 277 276 283 280 280 292 290 291 293 294 297 298 301 300 299 302 304 306 306 303 306 307 309 310 312 314 313 314 314 316 317 318 321 323 325
292 285 279 281 284 289 286 289 287 284 280 278 278 279 291 292 292 294 294 296 298 301 301 300 302 302 306 306 305 303 304 306 308 309 310 311 312 313 315 316 318 321 321 321
297 286 283 280 284 283 281 286 288 284 274 279 281 283 288 290 290 293 294 296 298 300 302 302 301 303 304 307 307 307 305 305 308 309 308 309 310 310 311 313 314 317 319 316
289 281 284 286 287 285 284 285 285 283 285 280 284 284 288 290 292 293 295 296 297 298 300 301 302 302 304 306 307 309 308 308 307 307 308 309 310 310 310 311 313 315 314 313
286 281 283 282 287 286 284 286 287 286 286 285 285 285 291 294 295 293 294 295 295 295 299 301 301 301 302 304 305 308 308 308 307 306 305 307 308 309 309 310 311 311 311 311
283 281 280 278 284 284 280 284 285 287 289 287 283 288 293 292 293 293 293 294 293 295 298 299 299 299 300 301 303 303 306 308 307 306 307 308 308 308 309 310 309 309 308 308
282 281 279 277 280 274 283 293 293 289 291 292 292 293 294 294 293 293 295 293 293 295 298 297 297 298 299 300 301 302 303 303 304 304 306 307 307 307 308 308 308 307 307 306
287 283 275 273 273 281 285 290 289 286 285 292 290 292 294 294 292 290 294 295 295 295 295 296 297 298 298 299 300 300 300 301 301 302 303 305 306 306 307 306 306 306 305 304
288 285 278 275 272 272 282 292 294 293 282 292 292 291 291 289 284 288 292 293 294 295 296 296 298 298 298 298 298 298 299 299 299 300 302 304 305 305 305 305 305 305 304 305
285 286 280 280 278 281 289 293 294 280 281 291 290 289 290 288 289 293 295 295 296 296 297 297 297 296 298 299 298 297 297 297 299 301 301 301 302 304 305 305 305 305 304 304
282 282 281 283 280 275 292 290 283 286 291 291 291 292 291 292 293 294 295 295 296 296 296 296 295 295 299 298 297 296 295 298 299 300 300 300 301 301 302 304 304 303 304 303
283 286 281 284 279 287 290 290 292 292 290 291 293 294 293 292 293 293 293 295 296 296 296 296 295 294 296 296 295 293 295 297 298 298 299 299 300 301 301 301 302 302 302 302
288 289 288 287 286 287 289 291 292 294 293 294 294 294 294 292 293 292 294 294 293 294 295 296 295 294 294 295 295 295 297 298 298 298 299 299 300 300 301 302 303 302 302 301
286 288 286 285 286 289 291 292 292 293 295 294 295 294 293 293 292 292 292 292 291 292 292 292 291 292 294 295 295 296 297 298 296 297 297 298 299 299 300 301 302 302 303 302
290 288 285 284 290 288 288 291 293 293 293 294 293 292 293 293 292 292 291 291 290 291 289 290 291 291 294 294 293 295 298 297 296 296 296 298 300 302 302 301 301 297 297 297
Wind_Speed
2 4 7 9 8 5 3 4 5 7 12 4 11 12 11 10 7 11 11 10 9 10 11 11 13 8 10 6 7 8 12 12 10 9 10 7 10 8 7 7 9 8 9 13
5 6 11 6 4 5 5 4 7 7 8 5 9 16 9 6 7 9 9 10 12 9 9 12 10 5 9 15 14 9 12 10 12 10 10 4 7 4 5 6 8 8 9 9
7 9 6 6 4 4 5 5 5 8 4 5 8 14 4 3 6 8 9 10 9 11 11 10 10 7 6 10 14 15 14 13 12 10 6 3 4 3 4 5 7 9 7 8
6 5 7 2 7 7 6 7 7 4 1 5 3 19 10 7 9 5 11 11 11 11 10 9 9 10 8 11 7 9 10 13 12 12 10 8 6 6 4 5 4 6 9 8
10 4 3 5 10 7 10 5 7 3 4 2 5 10 5 6 11 12 14 10 13 12 11 11 10 10 11 8 8 6 6 7 7 9 12 9 5 4 3 4 5 5 6 8
7 1 6 9 2 5 2 2 3 4 2 4 9 9 1 2 7 6 11 14 13 16 10 11 11 10 9 4 7 7 8 7 7 9 8 9 9 6 4 3 3 3 3 4
5 11 5 5 3 2 5 6 4 4 3 13 4 5 10 10 14 7 11 19 17 11 12 10 12 10 11 9 9 8 7 8 8 8 8 8 9 8 7 5 4 4 2 3
5 9 7 4 6 8 5 7 6 7 9 15 3 8 7 8 6 4 8 7 11 10 10 12 14 12 12 12 12 14 12 8 7 7 7 6 8 5 5 6 4 4 3 3
3 5 3 2 3 5 4 4 1 1 2 3 6 7 7 11 7 6 9 9 12 12 12 11 10 8 8 8 14 18 16 12 12 11 8 7 7 7 7 6 5 4 4 3
3 3 2 1 4 4 4 5 4 3 4 6 4 7 10 10 8 9 11 12 15 11 9 9 9 5 4 2 3 6 8 9 8 8 7 7 8 7 6 5 5 5 5 5
3 4 4 2 4 8 1 1 3 2 4 4 7 6 6 8 5 7 12 12 15 15 11 8 8 5 6 5 6 4 1 5 6 7 6 7 7 7 6 5 5 5 4 5
0 5 5 10 1 3 3 7 7 5 5 4 4 15 9 7 3 6 9 13 14 16 14 8 7 6 7 6 5 2 1 4 5 2 4 6 6 7 7 6 6 5 6 6
3 2 2 6 2 3 4 6 5 3 3 8 6 12 4 7 10 8 8 12 12 14 16 13 7 5 3 5 7 6 3 6 3 1 5 6 6 7 8 7 6 7 7 7
3 5 9 11 8 5 4 6 6 6 4 6 15 21 19 17 8 8 8 8 11 13 9 13 10 9 7 6 9 9 5 4 4 7 8 7 7 8 8 8 8 9 9 9
6 6 5 5 5 4 5 9 9 10 15 9 23 16 21 6 6 7 7 7 9 11 14 8 7 7 7 9 9 2 3 2 1 6 7 11 10 7 5 6 8 9 9 7
1 3 0 4 6 9 12 15 14 15 11 16 17 22 10 3 5 5 7 9 14 14 11 10 9 8 8 8 5 5 6 6 5 1 6 5 5 6 7 7 9 9 9 8
4 4 2 7 3 5 9 13 13 4 6 6 7 5 2 4 6 5 8 13 17 15 12 7 8 10 9 10 9 9 7 5 5 7 5 4 1 4 6 7 7 7 6 5
6 5 3 4 3 5 4 0 3 4 8 6 7 6 4 4 5 8 10 14 15 13 11 7 8 10 13 11 10 6 5 5 5 7 5 6 4 4 5 5 6 6 5 7
6 5 2 3 3 7 4 2 2 2 7 9 9 5 8 8 10 15 11 10 9 8 11 12 12 11 11 13 9 8 10 7 6 5 4 6 5 5 5 5 6 5 5 5
7 4 5 2 3 5 3 2 2 1 11 4 2 8 13 6 11 18 7 9 15 16 15 16 16 16 15 13 9 11 10 9 11 8 7 5 6 6 7 6 6 6 4 8
3 3 6 4 4 7 3 2 3 1 6 5 4 8 11 13 16 21 22 20 20 18 17 14 16 17 18 14 10 13 14 16 12 12 11 10 8 8 8 9 7 6 9 8
5 4 3 1 3 7 1 4 2 4 11 15 10 14 19 23 25 22 25 22 23 22 21 19 17 16 15 11 11 16 18 14 15 13 13 13 11 9 9 10 10 10 10 10
1 2 3 6 7 2 2 6 7 8 12 11 17 20 22 24 23 23 26 23 19 22 21 17 17 18 19 17 15 19 19 15 14 16 16 14 11 11 11 12 11 8 9 9
0 1 2 4 2 3 10 7 5 13 16 19 20 22 21 26 25 25 23 19 17 23 19 19 19 18 21 16 16 19 16 15 16 16 14 12 12 11 11 10 9 10 10 8
3 2 1 6 7 11 4 10 17 21 21 20 20 22 26 26 27 23 24 19 16 20 20 10 16 19 19 15 16 16 17 15 16 17 14 14 13 13 12 12 11 10 11 10
1 2 2 4 8 7 17 20 21 20 19 22 25 27 27 25 24 25 24 16 18 16 14 18 13 18 17 15 16 17 14 14 16 15 12 11 10 8 7 9 9 12 12 15
Wind_Direction
24 89 216 220 198 197 217 202 228 257 267 245 263 273 276 263 290 284 292 293 277 270 267 268 275 227 217 217 192 200 198 188 172 169 180 187 202 182 191 199 201 190 198 209
24 247 229 201 186 201 211 246 263 272 261 170 274 280 245 226 239 239 250 278 288 297 290 295 284 263 220 210 204 191 206 189 189 186 191 181 178 176 176 184 201 203 194 198
170 231 109 174 214 203 229 190 239 225 310 297 290 288 275 229 223 254 261 245 261 253 280 290 292 269 244 245 202 196 196 188 197 177 146 95 102 90 120 189 207 216 197 192
225 240 226 208 249 148 280 204 229 227 102 262 359 288 301 256 268 251 259 263 257 264 270 264 271 284 222 232 264 233 190 179 184 168 173 176 178 162 181 168 171 189 198 200
236 173 157 204 231 147 231 179 192 215 221 27 277 280 281 345 293 268 280 270 268 262 257 256 260 262 269 190 202 219 179 161 174 173 180 178 157 140 146 144 166 181 197 205
239 177 175 210 251 185 92 105 53 47 116 216 236 236 101 263 243 292 309 292 278 282 272 261 262 265 261 210 181 182 186 184 171 170 170 168 165 154 149 155 176 188 203 209
302 258 232 177 205 35 88 73 313 317 268 269 237 276 257 274 286 305 318 305 295 279 285 268 273 263 258 207 191 175 181 191 179 170 165 161 155 154 162 162 183 203 199 218
193 287 176 181 178 184 172 160 174 243 268 282 163 252 260 262 264 294 285 305 315 318 300 279 268 262 247 222 192 180 178 178 179 162 167 164 155 156 164 169 173 190 199 220
182 269 338 64 126 131 181 184 138 356 245 324 222 297 311 272 275 287 321 339 325 318 320 299 295 279 257 222 203 188 178 177 172 179 165 172 165 154 168 172 165 174 187 227
228 282 274 128 118 57 143 143 64 11 297 267 257 270 262 283 291 314 315 326 317 311 323 318 321 324 64 64 152 155 163 177 184 173 169 171 173 162 146 139 177 185 184 185
153 143 279 22 204 186 87 126 69 133 165 221 307 254 226 254 289 312 319 325 323 319 294 297 290 29 23 79 85 68 221 166 209 205 184 170 171 164 144 173 187 178 180 182
125 155 222 219 319 303 153 191 156 152 237 226 227 273 245 287 340 339 323 326 326 324 308 291 283 46 46 4 23 153 196 261 232 338 184 194 187 152 164 187 191 183 182 170
181 253 296 324 22 348 201 196 180 124 94 214 241 263 285 319 319 344 321 314 331 326 336 321 321 3 121 104 42 33 318 258 203 37 253 235 193 175 184 185 182 175 179 180
174 197 221 246 251 166 195 212 198 161 158 241 235 277 279 286 295 307 301 307 320 334 345 352 334 343 345 16 82 329 344 296 264 185 188 219 226 209 190 183 183 182 185 178
168 219 206 256 255 215 235 239 224 205 239 220 275 263 280 263 244 273 292 301 322 336 329 340 340 356 351 345 346 197 229 125 48 273 217 203 215 203 188 199 197 185 179 186
201 245 238 261 266 255 255 252 238 240 251 255 260 271 277 240 261 274 297 324 318 315 307 319 335 350 344 337 331 322 334 342 23 124 270 256 210 182 190 194 201 177 184 179
175 158 72 276 262 313 278 250 237 201 230 227 233 250 197 275 310 316 313 314 303 300 295 295 319 322 326 328 329 334 321 329 325 311 322 344 290 253 196 172 169 180 189 174
162 142 144 263 13 236 256 331 131 225 250 243 271 263 279 303 272 280 282 282 285 291 291 293 301 305 307 306 308 303 308 304 301 309 340 315 276 236 232 183 185 180 182 195
174 126 187 175 204 298 288 115 91 20 279 239 253 282 287 299 314 277 262 245 259 269 282 285 289 286 283 287 285 285 295 285 279 288 275 276 300 278 252 231 216 213 188 195
96 95 138 137 178 241 252 183 13 81 274 97 26 279 287 308 288 289 282 273 274 275 274 275 271 277 276 270 270 283 278 275 280 278 262 249 246 258 261 242 228 223 205 219
128 161 223 231 252 282 259 329 335 220 282 256 252 267 289 280 271 287 292 282 274 273 271 268 275 273 266 254 231 248 263 268 273 265 260 250 236 238 236 243 235 227 232 227
190 157 236 259 256 276 19 353 181 257 295 305 288 298 298 287 288 286 286 277 276 269 264 267 269 271 270 252 259 262 258 262 263 257 256 249 250 248 247 233 232 226 228 232
230 178 208 188 226 234 301 242 264 283 280 290 298 297 293 287 287 288 294 281 275 270 262 256 259 268 266 250 252 262 261 247 249 256 252 248 245 243 242 239 238 228 223 221
309 92 242 340 329 299 298 276 297 315 302 297 293 293 293 292 283 285 286 277 283 282 265 262 253 255 259 249 249 257 251 246 246 237 230 237 244 235 238 241 232 226 219 211
233 13 243 250 288 309 284 325 314 305 301 301 302 299 293 292 291 289 296 275 284 281 277 269 264 257 256 241 245 255 252 244 247 246 249 252 247 238 241 233 228 227 225 218
172 337 312 284 333 285 299 306 305 304 310 308 301 300 299 303 302 298 296 292 291 275 287 273 267 276 255 238 244 252 237 242 245 242 241 239 230 223 224 228 232 229 225 212